Flag for U.S.A. Weather past 2 weeks in Rancho Cucamonga, California, U.S.A.

60 °F

Partly sunny.

Feels Like: 60 °F
Forecast: 41 / 58 °F
Wind: 9 mph from Southeast

Location: Ontario International Airport

Current Time: Nov 27, 2015 at 2:43:12 PM

Latest Report: Nov 27, 2015 at 1:53 PM

Visibility: 10 mi

Pressure: 29.96 "Hg

Humidity: 25%

Dew point: 24 °F

Location of Rancho CucamongaLocation

Historic Weather in Rancho Cucamonga — Graph


Rancho Cucamonga temperature yesterday

Maximum temperature yesterday: 58 °F (at 11:53 AM)
Minimum temperature yesterday: 46 °F (at 1:53 AM)
Average temperature yesterday: 51 °F

Past Weeks' High & Low Weather Summary

High87 °F (Nov 21, 12:53 PM)93% (Nov 25, 2:53 AM)30.19 "Hg (Nov 25, 2:53 AM)
Low42 °F (Nov 17, 3:53 AM)5% (Nov 12, 1:53 PM)29.82 "Hg (Nov 25, 2:53 AM)
Average61 °F37%29.95 "Hg
* Reported Nov 12 12:53 PM — Nov 27 12:53 PM, Rancho Cucamonga, Weather by CustomWeather, © 2015

Note: Actual official high and low records may vary slightly from our data, if they occured in-between our weather recording intervals... More about our weather records


Rancho Cucamonga weather history for previous 24 hours

Time TempWeatherWind HumidityBarometerVisibility
12:53 PM
Fri, Nov 27
59 °FBroken clouds.13 mph28%29.97 "Hg10 mi
11:53 AM59 °FPartly sunny.12 mph29%29.98 "Hg10 mi
10:53 AM55 °FPartly sunny.9 mph33%30.01 "Hg10 mi
9:53 AM55 °FPartly sunny.9 mph29%30.02 "Hg10 mi
8:53 AM50 °FScattered clouds.6 mph61%30.02 "Hg10 mi
7:53 AM46 °FScattered clouds.No wind77%30.01 "Hg10 mi
6:53 AM44 °FScattered clouds.5 mph82%30.00 "Hg10 mi
5:53 AM44 °FPassing clouds.5 mph79%29.98 "Hg10 mi
4:53 AM48 °FPassing clouds.9 mph66%29.97 "Hg10 mi
3:53 AM48 °FPassing clouds.5 mph74%29.98 "Hg10 mi
2:53 AM49 °FPassing clouds.5 mph74%29.98 "Hg10 mi
1:53 AM49 °FPassing clouds.5 mph71%29.99 "Hg10 mi
12:53 AM48 °FPassing clouds.6 mph74%29.98 "Hg10 mi
11:53 PM
Thu, Nov 26
47 °FPassing clouds.6 mph74%29.99 "Hg10 mi
10:53 PM48 °FPassing clouds.7 mph74%30.00 "Hg10 mi
9:53 PM49 °FScattered showers. Partly cloudy.3 mph77%30.00 "Hg10 mi
8:53 PM50 °FPartly cloudy.3 mph80%29.99 "Hg10 mi
7:53 PM50 °FLight rain. Overcast.No wind83%29.99 "Hg10 mi
6:53 PM53 °FMostly cloudy.5 mph61%29.98 "Hg10 mi
5:53 PM53 °FOvercast.No wind59%29.97 "Hg10 mi
4:53 PM53 °FPassing clouds.8 mph59%29.96 "Hg10 mi
3:53 PM56 °FPartly sunny.13 mph51%29.95 "Hg10 mi
2:53 PM58 °FOvercast.6 mph43%29.94 "Hg10 mi
Weather by CustomWeather, © 2015

See weather overviewHow to use our weather pages